Location: Hannover
(52.3723°N, 9.7339°E)
Time: 05:15:51
(UTC+01:00)

Envisat - Visible Passes

Search period start: 17 November 2019 00:00
Search period end: 27 November 2019 00:00
Orbit: 764 x 766 km, 98.1° (Epoch: 16 November)

Date Brightness Start Highest point End Pass type
(mag) Time Alt. Az. Time Alt. Az. Time Alt. Az.
17 Nov 5.1 06:33:46 10° NNE 06:38:19 32° E 06:42:50 10° SSE visible
17 Nov 2.9 17:53:49 10° SSE 17:58:52 72° ENE 18:03:58 10° NNW visible
17 Nov 5.5 19:34:46 10° SW 19:38:27 20° W 19:42:09 10° NW visible
18 Nov 6.0 05:57:53 10° NE 06:01:08 17° E 06:04:20 10° SE visible
18 Nov 3.5 17:17:35 10° SE 17:22:15 39° ENE 17:26:57 10° N visible
18 Nov 4.5 18:56:36 10° SSW 19:01:19 38° W 19:06:03 10° NNW visible
19 Nov 4.1 06:59:01 10° NNE 07:03:59 50° E 07:08:55 10° S visible
19 Nov 3.2 18:19:18 10° S 18:24:22 73° WSW 18:29:29 10° NNW visible
19 Nov 6.1 20:02:16 10° WSW 20:04:20 12° W 20:06:23 10° WNW visible
20 Nov 5.4 06:22:40 10° NE 06:26:56 26° E 06:31:10 10° SSE visible
20 Nov 3.0 17:42:38 10° SSE 17:47:38 60° ENE 17:52:38 10° N visible
20 Nov 5.3 19:22:57 10° SW 19:27:03 24° W 19:31:10 10° NW visible
21 Nov 6.1 05:47:09 10° NE 05:49:41 14° E 05:52:12 10° ESE visible
21 Nov 3.7 17:06:35 10° SE 17:11:04 32° ENE 17:15:34 10° N visible
21 Nov 4.1 18:45:06 10° S 18:49:58 46° W 18:54:53 10° NNW visible
22 Nov 4.5 06:47:49 10° NNE 06:52:38 41° E 06:57:26 10° SSE visible
22 Nov 3.0 18:08:00 10° SSE 18:13:05 88° WSW 18:18:13 10° NNW visible
22 Nov 5.9 19:49:58 10° WSW 19:52:53 15° W 19:55:49 10° NW visible
23 Nov 5.7 06:11:38 10° NE 06:15:33 22° E 06:19:25 10° SE visible
23 Nov 3.2 17:31:31 10° SE 17:36:24 49° ENE 17:41:18 10° N visible
23 Nov 4.9 19:11:16 10° SSW 19:15:39 29° W 19:20:05 10° NNW visible
24 Nov 6.3 05:36:53 10° ENE 05:38:13 11° E 05:39:34 10° E visible
24 Nov 3.5 07:13:10 10° NNE 07:18:16 66° ESE 07:23:19 10° S visible
24 Nov 3.9 16:55:38 10° ESE 16:59:53 28° ENE 17:04:08 10° N visible
24 Nov 3.7 18:33:39 10° S 18:38:38 56° W 18:43:40 10° NNW visible
25 Nov 4.9 06:36:39 10° NNE 06:41:18 34° E 06:45:54 10° SSE visible
25 Nov 2.9 17:56:44 10° SSE 18:01:49 77° ENE 18:06:55 10° NNW visible
25 Nov 5.6 19:37:57 10° SW 19:41:27 19° W 19:44:58 10° NW visible
26 Nov 5.9 06:00:40 10° NE 06:04:07 18° E 06:07:34 10° SE visible
26 Nov 3.4 17:20:26 10° SE 17:25:10 41° ENE 17:29:56 10° N visible
26 Nov 4.6 18:59:39 10° SSW 19:04:17 35° W 19:08:57 10° NNW visible
